Location: Alaincourt
(47.9419°N, 6.1013°E)
Time: 12:44:42
(UTC+00:00)

Daily predictions for brighter satellites

Satellite Brightness Start Highest point End
(mag) Time Altitude Azimuth Time Altitude Azimuth Time Altitude Azimuth
Cosmos 1633 2.9 19:27:37 10° SSW 19:31:08 67° WNW 19:34:40 10° N
Resurs 01 Rocket 2.1 19:28:57 10° SE 19:33:07 43° ENE 19:37:19 10° N
Cosmos 972 Rocket 3.9 19:28:16 10° NNW 19:33:21 82° ENE 19:38:14 10° SSE
Cosmos 1441 Rocket 3.9 19:34:58 10° SSE 19:38:23 33° E 19:41:47 10° NNE
Cosmos 614 Rocket 4.4 19:37:07 10° S 19:41:55 41° ESE 19:46:47 10° NE
Cosmos 1900 4.3 19:40:09 10° SSW 19:45:03 70° ESE 19:50:05 10° NE
USA 267 3.4 19:42:04 10° ENE 19:48:25 51° SE 19:54:46 10° SSW
GP-B 4.5 19:46:30 10° NNE 19:49:59 22° E 19:53:14 11° SE
IRIDIUM 103 4.4 19:45:01 10° S 19:50:10 64° E 19:55:21 10° N
Cosmos 1821 Rocket 4.1 19:46:24 10° SSE 19:52:20 55° E 19:58:23 10° NNE
Shenzhou-11 Module 2.9 19:52:14 10° WSW 19:54:11 22° S 19:55:30 14° SE
COSMOS 2406 3.3 19:48:33 10° S 19:54:12 62° ESE 19:59:52 10° NNE
Cosmos 1743 Rocket 4.1 19:51:01 10° SSW 19:55:25 63° WNW 19:59:53 10° N
CZ-2C R/B 3.7 19:51:37 10° NNE 19:56:16 73° ESE 20:00:47 10° S
SL-16 R/B 4.2 19:53:29 10° N 19:57:09 17° NE 20:00:48 10° ENE
Intercosmos 25 3.4 19:53:17 10° N 19:57:58 65° ENE 20:01:19 10° SSE
ERS-1 Rocket 4.3 19:56:08 11° ESE 20:00:01 25° ENE 20:04:05 10° N
Lacrosse 5 3.3 19:55:38 10° NW 20:00:12 32° NNE 20:04:47 10° ENE
Cosmos 2369 3.9 19:57:16 10° NNW 20:02:59 64° ENE 20:08:05 13° SE
Cosmos 1862 3.3 19:59:34 10° S 20:03:38 88° E 20:07:43 10° N
Sich 1 3.2 20:00:12 10° S 20:04:33 58° E 20:08:56 10° NNE
Cosmos 1818 3.6 20:02:08 10° NW 20:07:38 90° NE 20:12:24 14° SE
BREEZE-M DEB (TANK) 2.1 20:04:39 10° W 20:08:03 68° N 20:09:55 11° ENE
IRIDIUM 106 4.3 20:03:14 10° S 20:08:27 90° ESE 20:13:43 10° N
Cosmos 2082 Rocket 2.8 20:04:21 10° S 20:09:27 35° ESE 20:14:33 10° NE
Cosmos 2278 4.1 20:06:38 10° NNW 20:12:14 52° ENE 20:16:44 16° SE
Cosmos 2123 Rocket 4.2 20:06:34 10° N 20:12:40 54° ENE 20:18:06 13° SSE
Spot 2 Rocket 3.7 20:11:25 13° SE 20:15:48 57° ENE 20:20:49 10° N
Cosmos 2322 Rocket 4.0 20:15:43 10° N 20:19:47 20° NE 20:23:51 10° E
Meteor 1-4 Rocket 2.8 20:16:59 10° N 20:20:23 48° ENE 20:22:27 21° SE
Cosmos 2239 Rocket 4.4 20:15:32 10° S 20:21:38 77° E 20:27:48 10° NNE
Cosmos 1184 Rocket 3.9 20:21:02 21° SE 20:22:09 26° E 20:24:59 10° NE
Cosmos 1190 Rocket 4.1 20:17:05 10° S 20:22:12 55° ESE 20:27:23 10° NNE
CZ-2C R/B 3.8 20:18:58 10° N 20:23:53 45° WNW 20:28:47 10° SW
Terra 3.2 20:21:08 15° ESE 20:23:55 25° ENE 20:27:47 10° N
USA 234 3.3 20:18:46 14° ESE 20:24:29 80° NNE 20:31:03 10° NW
Cosmos 407 Rocket 3.5 20:19:50 10° SSW 20:25:07 70° ESE 20:30:24 10° NNE
Cosmos 1605 Rocket 4.5 20:21:08 14° SSE 20:25:52 39° E 20:31:27 10° NNE
Cosmos 1666 Rocket 3.5 20:21:52 10° S 20:26:08 65° E 20:30:26 10° NNE
Cosmos 1238 Rocket 3.7 20:28:02 19° E 20:28:08 19° E 20:30:20 10° NE
MetOp-B 4.2 20:25:44 12° SSE 20:30:47 85° WSW 20:36:11 10° NNW
Meteor 1-27 Rocket 3.9 20:25:12 10° NNW 20:31:08 82° W 20:36:53 11° S
Cosmos 2360 Rocket 4.4 20:30:22 10° N 20:33:42 16° NE 20:37:03 10° ENE
Cosmos 1437 Rocket 4.5 20:31:36 10° NNE 20:34:15 18° ENE 20:35:27 16° E
BREEZE-M DEB (TANK) 4.1 20:34:18 10° W 20:37:03 15° WSW 20:38:55 10° SSW
ERBS 4.5 20:34:24 10° W 20:37:19 27° NNW 20:40:14 10° NE
USA 238 DEB 4.1 20:32:03 10° S 20:37:59 37° ESE 20:44:08 10° NE
USA 238 4.1 20:32:11 10° S 20:38:05 36° ESE 20:44:15 10° NE
SPOT 5 3.3 20:35:54 22° ESE 20:38:08 39° ENE 20:42:12 10° N
Cosmos 1980 Rocket 2.2 20:37:45 10° NNW 20:43:28 77° ENE 20:47:05 23° SE
SPOT 1/Viking Rocket 3.5 20:39:53 19° SSE 20:43:39 80° ENE 20:48:55 10° NNW
Cosmos 2242 Rocket 4.3 20:41:31 10° N 20:45:41 37° ENE 20:47:29 26° ESE
SL-4 R/B 1.8 20:44:03 10° SW 20:47:54 57° SSE 20:51:30 10° ENE
BREEZE-M DEB (TANK) 2.7 20:46:05 10° W 20:48:51 78° N 20:56:22 10° E
Genesis I 3.2 20:45:11 10° NW 20:49:04 75° NE 20:50:44 32° SE
Cosmos 405 Rocket 3.4 20:49:21 30° ESE 20:49:54 31° E 20:53:14 10° NNE
Cosmos 1140 Rocket 3.5 20:45:32 10° SSW 20:50:47 88° ESE 20:56:05 10° NNE
ATLAS 5 CENTAUR R/B 3.7 20:46:49 10° WNW 20:51:57 32° WSW 20:57:17 12° S
USA 32 4.0 20:53:02 19° S 20:56:52 75° E 21:02:07 10° N
Cosmos 1697 Rocket 3.4 20:53:42 10° NW 20:59:04 47° WSW 21:03:04 17° S
Cosmos 1633 Rocket 3.3 20:55:05 10° SSW 20:59:27 70° WNW 21:03:53 10° N
Cosmos 1833 Rocket 3.1 20:54:27 10° SW 21:00:01 64° WNW 21:05:39 10° NNE
Cosmos 1867 3.5 21:01:00 10° SSW 21:06:23 70° SE 21:11:50 10° NE
CENTAUR R/B 3.1 21:04:46 28° SE 21:06:35 33° ESE 21:12:33 10° NE
Meteor 1-18 Rocket 4.3 21:01:35 10° N 21:07:10 63° ENE 21:09:50 31° SSE
Okean 1-7 3.7 21:03:15 10° N 21:07:21 40° ENE 21:08:30 33° ESE
Resurs 01 Rocket 3.7 21:06:21 10° SW 21:09:48 22° W 21:13:17 10° NW
FALCON 9 DEB 3.0 21:10:07 10° SW 21:13:36 70° SSE 21:15:22 27° ENE
Cosmos 1447 Rocket 4.5 21:07:58 10° N 21:14:22 76° E 21:17:47 29° SSE
Meteor 2-4 Rocket 4.3 21:11:20 10° N 21:16:48 43° ENE 21:18:53 31° ESE
deb Kosmos-1763 4.5 21:14:16 15° SW 21:17:09 61° WNW 21:20:47 10° NNE
Cosmos 1515 3.9 21:14:03 10° N 21:17:49 51° ENE 21:18:22 46° ESE
Cosmos 676 Rocket 4.1 21:14:22 10° SSW 21:19:41 83° WNW 21:25:04 10° NNE
ATLAS 5 CENTAUR R/B 3.1 21:18:42 10° NNW 21:21:05 30° NE 21:23:25 20° E
Meteor 1-25 Rocket 4.2 21:17:53 20° SSW 21:21:54 87° WNW 21:27:33 10° N
Cosmos 1470 Rocket 3.7 21:19:31 24° SSW 21:22:10 72° W 21:26:34 10° N
SWARM A 4.5 21:19:45 10° N 21:22:57 53° ENE 21:22:57 53° ENE
GP-B 4.2 21:23:17 10° NNW 21:27:29 41° W 21:30:41 16° SW
USA 267 3.7 21:25:06 10° NE 21:31:35 65° NNW 21:38:03 10° WSW
NOSS 3-2 (A) 3.3 21:26:43 10° SSW 21:32:24 77° SE 21:38:58 10° NE
Cosmos 921 Rocket 3.2 21:29:34 10° NNW 21:33:45 59° WSW 21:34:51 43° SSW
NOSS 3-2 (C) 3.4 21:35:51 32° S 21:38:22 55° ESE 21:44:40 10° NE
ERS-1 Rocket 3.6 21:36:08 28° SSW 21:38:32 50° W 21:43:25 10° NNW
Cosmos 841 Rocket 4.0 21:35:23 10° NNW 21:40:27 48° ENE 21:42:00 36° ESE
SAR-Lupe-2 4.2 21:37:16 10° N 21:40:46 52° WNW 21:41:55 35° SW
Cosmos 540 Rocket 4.0 21:36:53 10° NNW 21:41:53 47° ENE 21:43:22 37° ESE
SL-16 R/B 2.3 21:36:40 10° NNW 21:42:22 70° ENE 21:44:17 42° SE
Lacrosse 5 1.9 21:38:44 10° NW 21:43:49 74° NNE 21:45:31 42° ESE
Cosmos 468 Rocket 4.0 21:38:47 10° NNW 21:44:08 81° WSW 21:45:45 46° S
Cosmos 1741 Rocket 3.9 21:48:23 46° S 21:49:52 70° ESE 21:55:08 10° NNE
Cosmos 1570 Rocket 4.2 21:46:30 10° NNW 21:51:47 61° ENE 21:53:10 45° ESE
Cosmos 2219 Rocket 4.1 21:48:48 10° N 21:53:02 21° NE 21:56:38 12° E
Cosmos 2082 Rocket 3.3 21:48:01 10° SW 21:53:25 44° NW 21:58:52 10° NNE
Cosmos 2208 Rocket 4.4 21:48:41 10° NNW 21:53:52 53° ENE 21:55:11 42° ESE
Cosmos 1814 Rocket 4.4 21:49:10 10° NNW 21:54:14 51° ENE 21:55:32 41° ESE
Terra 2.5 22:00:02 36° SW 22:01:26 46° W 22:06:01 10° NNW
Cosmos 2322 Rocket 2.1 21:59:00 10° NNW 22:04:45 83° ENE 22:06:13 52° SE
USA 234 4.0 22:06:06 32° SSW 22:07:53 38° SW 22:13:53 10° WNW
Cosmos 2100 Rocket 3.9 22:05:35 41° S 22:07:54 90° WNW 22:14:06 10° N
Meteor 1-11 Rocket 3.9 22:09:09 48° ESE 22:09:56 52° E 22:15:30 10° NNE
Cosmos 1437 Rocket 3.6 22:07:08 10° NNW 22:10:42 39° W 22:10:50 39° W
Cosmos 1242 Rocket 4.1 22:09:33 10° N 22:12:07 27° NE 22:12:07 27° NE
Cosmos 1869 Rocket 3.6 22:13:01 65° SW 22:13:33 75° W 22:18:01 10° N
SPOT 5 4.4 22:15:08 20° WSW 22:16:24 23° W 22:19:51 10° NW
Cosmos 2360 Rocket 2.4 22:13:18 10° NNW 22:18:57 61° ENE 22:20:19 47° ESE
COSMOS 2428 4.3 22:14:51 10° N 22:19:41 27° NE 22:22:36 18° E
ATLAS 3B R/B 2.9 22:21:13 43° ESE 22:21:27 43° ESE 22:27:38 10° NE
Geosat 3.9 22:20:48 64° S 22:21:31 78° WSW 22:26:35 10° NNW
Iridium 4 Rocket 3.2 22:21:44 62° WSW 22:22:07 65° W 22:26:20 10° N
Cosmos 2173 Rocket 4.0 22:21:11 41° SSW 22:23:29 75° W 22:29:39 10° N
Cosmos 1500 3.8 22:25:10 52° WNW 22:25:10 52° WNW 22:28:39 10° N
CRYOSAT 2 4.2 22:21:31 10° N 22:26:27 76° E 22:26:46 72° SE
Cosmos 1980 Rocket 4.1 22:23:01 10° WNW 22:26:47 18° W 22:28:51 15° SW
SL-4 R/B 2.5 22:23:52 10° W 22:27:13 49° NNW 22:27:13 49° NNW
ALOS 2 3.2 22:27:44 44° ENE 22:27:48 44° ENE 22:31:59 10° N
USA 238 DEB 4.2 22:22:04 10° WSW 22:28:39 59° NW 22:35:33 10° NE
USA 238 4.1 22:22:10 10° WSW 22:28:45 60° NW 22:35:39 10° NE
Cosmos 1725 Rocket 4.0 22:27:20 53° SSE 22:28:46 71° E 22:35:06 10° NNE
Cosmos 1763 Rocket 4.3 22:25:16 10° NW 22:30:12 39° WSW 22:31:09 36° SW
Cosmos 1674 Rocket 4.1 22:29:16 10° N 22:33:13 48° ENE 22:33:13 48° ENE
SL-08 R/B 4.3 22:32:19 57° SSE 22:33:37 78° E 22:39:43 10° NNE
Cosmos 1536 3.4 22:34:39 52° NE 22:34:39 52° NE 22:37:51 10° NNE
Cosmos 1666 3.4 22:37:32 51° N 22:37:32 51° N 22:40:25 10° N
Cosmos 2333 Rocket 3.2 22:33:55 10° NNW 22:39:23 41° NE 22:41:19 31° E
Cosmos 1271 Rocket 4.2 22:38:03 10° N 22:40:47 30° NE 22:40:47 30° NE
Cosmos 2016 Rocket 4.0 22:39:51 49° SSW 22:41:42 80° W 22:48:07 10° N
Meteor 1-13 Rocket 4.3 22:37:00 10° NNW 22:42:30 64° W 22:43:23 55° SW
Cosmos 2061 Rocket 4.0 22:41:23 50° SSW 22:43:06 79° W 22:49:20 10° N
Cosmos 2237 Rocket 4.4 22:39:09 10° N 22:43:07 19° NE 22:47:02 10° E
Lacrosse 4 Rocket 3.3 22:45:23 20° ENE 22:45:23 20° ENE 22:47:04 10° NE
MOS 1-B Rocket 3.9 22:39:26 10° NNE 22:45:09 71° WNW 22:46:44 47° SW
Cosmos 2221 Rocket 3.9 22:42:09 10° NNW 22:46:29 57° W 22:46:29 57° W
Cosmos 1733 Rocket 3.1 22:50:59 73° NNE 22:50:59 73° NNE 22:55:01 10° N
Okean 3 4.4 22:46:36 10° NNW 22:50:30 41° W 22:50:30 41° W
SL-27 R/B 4.2 22:53:08 27° NW 22:53:08 27° NW 22:55:39 10° N
Cosmos 1066 Rocket 4.0 22:47:17 10° NNW 22:53:03 89° W 22:53:46 70° S
Meteor 1-23 Rocket 4.1 22:49:00 10° NNW 22:54:52 89° W 22:55:42 67° S
Cosmos 1864 Rocket 4.5 22:53:22 52° SSW 22:54:55 76° W 23:01:12 10° N
Thor Agena Rocket 3.5 22:51:18 10° NNE 22:56:23 75° WNW 22:56:59 66° SW
CENTAUR R/B 3.0 22:51:50 16° WSW 22:56:47 61° NW 23:04:00 10° NE
Cosmos 968 Rocket 4.2 22:59:01 39° E 22:59:01 39° E 23:03:10 10° NE
Cosmos 967 Rocket 4.5 22:53:57 10° NW 23:00:15 62° WSW 23:01:03 57° SSW
Cosmos 44 3.9 22:57:15 10° NW 23:01:32 47° WSW 23:01:32 47° WSW
Spot 4 4.5 23:06:33 43° W 23:06:34 43° W 23:11:11 10° NNW
Cosmos 1378 4.2 23:09:51 10° N 23:12:29 43° NNW 23:12:29 43° NNW
USA 267 4.5 23:08:00 10° ENE 23:14:02 41° N 23:20:05 10° WNW
Cosmos 2233 Rocket 4.0 23:14:31 60° SSW 23:15:47 82° W 23:22:09 10° N
Cosmos 1908 Rocket 4.0 23:18:33 56° NE 23:18:33 56° NE 23:22:12 10° NNE
Cosmos 1842 4.5 23:14:42 10° N 23:17:41 37° NE 23:17:41 37° NE
Cosmos 2227 Rocket 4.4 23:22:42 11° E 23:22:43 11° E 23:24:14 10° E
SL-16 R/B 3.8 23:21:47 10° NW 23:25:53 21° W 23:26:08 21° WSW
Lacrosse 5 3.5 23:22:11 10° WNW 23:24:40 22° W 23:24:40 22° W
Cosmos 2322 3.5 23:23:33 10° NNW 23:29:14 76° WSW 23:29:31 74° SW
Cosmos 1378 Rocket 4.1 23:25:01 10° NNW 23:28:49 52° WNW 23:28:49 52° WNW
Cosmos 1833 4.2 23:28:44 62° WSW 23:29:37 74° WNW 23:35:18 10° NNE
COSMOS 2487 4.2 23:32:14 31° N 23:32:14 31° N 23:34:16 10° NNE
Cosmos 2219 Rocket 2.0 23:32:05 10° NNW 23:37:48 89° ENE 23:38:19 75° SSE
Cosmos 1975 Rocket 3.4 23:38:22 10° N 23:42:25 64° NE 23:42:25 64° NE
Cosmos 2333 4.3 23:37:54 10° NNW 23:43:37 60° WSW 23:43:44 60° WSW
Cosmos 2034 Rocket 4.4 23:43:53 45° ESE 23:44:56 50° E 23:50:59 10° NNE
Okean 2 Rocket 4.5 23:45:22 29° E 23:45:22 29° E 23:48:53 10° NNE
Cosmos 1503 Rocket 4.0 23:45:55 70° ESE 23:45:55 70° ESE 23:51:17 10° NNE
Cosmos 1072 Rocket 4.3 23:46:51 65° SSE 23:47:41 76° E 23:53:48 10° NNE
YAOGAN 11 4.3 23:48:26 74° NNW 23:48:26 74° NNW 23:52:39 10° NNW
Cosmos 2322 Rocket 4.0 23:44:30 10° WNW 23:48:01 17° W 23:48:01 17° W
Helios 1A 3.6 23:49:48 52° NW 23:49:48 52° NW 23:53:11 10° NNW
SL-16 R/B 4.2 23:46:15 13° ESE 23:50:33 27° ENE 23:55:40 10° N
ERBS 4.5 23:48:40 10° NW 23:51:02 25° N 23:51:02 25° N
Cosmos 1486 Rocket 4.1 23:52:11 60° W 23:52:38 63° WNW 23:57:50 10° NNE
Cosmos 1544 4.5 23:54:38 38° NNW 23:54:38 38° NNW 23:57:04 10° N
SL-16 R/B 4.3 23:48:58 10° N 23:53:27 23° NE 23:57:55 10° E
CZ-2D R/B 4.2 23:50:28 10° NE 23:53:38 15° E 23:54:54 14° ESE
Sich 1 Rocket 4.1 23:55:31 51° ENE 23:55:31 51° ENE 23:59:14 10° NNE
